Flag for Brazil Weather past 2 weeks in Santos, São Paulo, Brazil

Now
72 °F

Thundershowers. Passing clouds.


Feels Like: 74 °F
Forecast: 74 / 83 °F
Wind: 6 mph from Northwest

Location: Sao Paulo Airport

Current Time: Feb 27, 2015 at 11:29:08 PM

Latest Report: Feb 27, 2015 at 11:00 PM


Visibility: N/A

Pressure: 30.04 "Hg

Humidity: 73%

Dew point: 63 °F

Location of SantosLocation

Historic Weather in Santos — Graph

°F

Santos temperature yesterday

Maximum temperature yesterday: 84 °F (at 2:00 PM)
Minimum temperature yesterday: 68 °F (at 12:00 AM)
Average temperature yesterday: 74 °F

Past Weeks' High & Low Weather Summary

 TemperatureHumidityPressure
High90 °F (Feb 13, 2:00 PM)100% (Feb 16, 5:00 PM)30.21 "Hg (Feb 16, 5:00 PM)
Low37 °F (Feb 24, 4:00 PM)35% (Feb 22, 1:00 PM)29.89 "Hg (Feb 27, 4:00 PM)
Average74 °F73%30.07 "Hg
* Reported Feb 12 11:00 PM — Feb 27 10:00 PM, Santos, Weather by CustomWeather, © 2015

Note: Actual official high and low records may vary slightly from our data, if they occured in-between our weather recording intervals... More about our weather records

Advertising

Santos weather history for previous 24 hours

 ConditionsComfort  
Time TempWeatherWind HumidityBarometerVisibility
10:00 PM
Fri, Feb 27
72 °FThundershowers. Passing clouds.10 mph73%30.01 "HgN/A
9:00 PM75 °FThundershowers. Passing clouds.10 mph65%30.01 "HgN/A
8:00 PM77 °FThundershowers. Passing clouds.5 mph57%29.95 "HgN/A
7:00 PM79 °FThundershowers. Passing clouds.3 mph51%29.92 "HgN/A
6:00 PM79 °FPassing clouds.7 mph45%29.89 "HgN/A
5:00 PM86 °FScattered showers. Scattered clouds.10 mph38%29.89 "HgN/A
4:00 PM88 °FPassing clouds.10 mph38%29.89 "HgN/A
3:00 PM86 °FPassing clouds.10 mph46%29.92 "HgN/A
2:00 PM86 °FScattered clouds.12 mph38%29.95 "HgN/A
1:00 PM84 °FPassing clouds.9 mph48%29.98 "HgN/A
12:00 PM84 °FPassing clouds.9 mph48%29.98 "HgN/A
11:00 AM82 °FPassing clouds.7 mph58%30.01 "HgN/A
10:00 AM79 °FSunny.6 mph61%30.01 "Hg10 mi
9:00 AM75 °FSunny.5 mph69%30.01 "Hg10 mi
8:00 AM73 °FSunny.6 mph74%30.01 "Hg10 mi
7:00 AM72 °FSunny.2 mph78%29.98 "Hg10 mi
6:00 AM70 °FSunny.1 mph83%29.98 "Hg10 mi
5:00 AM70 °FSunny.2 mph83%29.98 "Hg10 mi
4:00 AM70 °FClear.5 mph83%29.98 "Hg10 mi
3:00 AM72 °FClear.1 mph78%29.98 "Hg10 mi
2:00 AM72 °FClear.No wind73%29.98 "Hg10 mi
1:00 AM73 °FClear.2 mph69%29.98 "Hg10 mi
12:00 AM73 °FClear.2 mph74%30.01 "Hg10 mi
11:00 PM
Thu, Feb 26
73 °FClear.2 mph74%30.01 "Hg10 mi
Weather by CustomWeather, © 2015

See weather overviewHow to use our weather pages